Über Satoro-T3
Group: 3 satellites
Beschreibung wird geladen...
Live-Position
3D-Globus wird geladen...
Nächste Überflüge
Höhenverlauf
Altitude vs Time
uPlot chart will show altitude changes over time
Zweizeiliger Elementsatz
1 64589U 25135BP 26062.08103221 .00002837 00000-0 27240-3 0 9999
2 64589 97.7589 177.8076 0004100 343.4381 16.6704 14.93856484 38069
Epoch: 3. März 2026 •
Age: 20 hours
Aktueller Status
Höhe 596.1 km
Geschwindigkeit 7.57 km/s
Subsatellitenpunkt 61.64°N,
63.81°E
Startdatum 23. Juni 2025
Alter 0.6 years
Typ other
Technische Details
Klassifizierung Payload
Masse 4.00 kg
Trockenmasse 4.00 kg
Gesamtmasse 4.00 kg
Länge 0.30 m
Durchmesser 0.10 m
Spannweite 0.30 m
Form Box
Hersteller SATORO
Bus-Typ Cubesat 3U
Phasenstatus In Orbit
Besitzer/Staat SATORO/TW
Große Konstellationen
Loading constellations...